{"data":{"norad_id":69191,"epoch":"2026-09-19T23:26:04.894656Z","epoch_age_seconds":72148,"freshness":"FRESH","line1":"1 69191U 26114K   26262.97644554  .00023160  00000+0  69432-3 0  9990","line2":"2 69191  53.1562 116.3192 0001441  63.7930 296.3221 15.34406906 19363","mean_motion":15.34406906,"eccentricity":0.0001441,"inclination_deg":53.1562,"raan_deg":116.3192,"arg_perigee_deg":63.793,"mean_anomaly_deg":296.3221,"bstar":0.00069432,"rev_number":1936,"period_min":93.847335694929,"perigee_km":461.6969520759,"apogee_km":463.66847631753,"semimajor_km":6840.8197141967,"source":"CELESTRAK","updated_at":"2026-09-20T09:00:44.097453Z"}}